Regional Weather Roundup
Issued by NWS Jackson, KY

Home | Current Version | Previous Version | Graphics & Text | Print | Product List | Glossary On
Versions: 1 2 3 4 5 6 7 8 9 10 11 12 13 14 15 16 17 18 19 20 21 22 23 24 25 26 27 28 29 30 31 32 33 34 35 36 37 38 39 40 41 42 43 44 45 46 47 48 49 50
000
ASUS43 KJKL 230510
RWRJKL

EAST KENTUCKY HOURLY WEATHER ROUNDUP
NATIONAL WEATHER SERVICE JACKSON KY
1200 AM EST FRI FEB 23 2018

NOTE: "FAIR" INDICATES FEW OR NO CLOUDS BELOW 12,000 FEET WITH
NO SIGNIFICANT WEATHER AND/OR OBSTRUCTIONS TO VISIBILITY.

* THESE REPORTS ARE NOT UNDER NWS QUALITY CONTROL AND MAY NOT
  REPORT WEATHER SUCH AS PRECIPITATION AND FOG.

KYZ079-080-083-085-087-088-110-112-115-119-120-230600
...EASTERN KENTUCKY...

CITY           SKY/WX    TMP DP  RH WIND       PRES   REMARKS
JACKSON          N/A     53  52  96 E3        30.36F
LONDON         FOG       55  54  96 CALM      30.35F VSB 1/4
SOMERSET*      FOG       54  54 100 CALM      30.36S VSB 3/4
WILLIAMSBURG*    N/A     57  57 100 CALM      30.35F VSB 1/2
MIDDLESBORO*     N/A     55  55 100 CALM      30.38R
HARLAN APT*      N/A     59  55  88 CALM      30.38R
PIKE CO APT*     N/A     56  56 100 CALM      30.37S
BIG SANDY APT* CLOUDY    51  51 100 CALM      30.38S
MOREHEAD APT*  FOG       48  46  93 CALM      30.38S VSB 1/2
ASHLAND*       CLOUDY    47  46  97 CALM      30.40F FOG
$$

KYZ035-036-041-042-044-050-067-078-099-230600
...CENTRAL KENTUCKY...

CITY           SKY/WX    TMP DP  RH WIND       PRES   REMARKS
MT STERLING*   FOG       50  50 100 CALM      30.37F VSB 1/2
FLEMING/MASON* FOG       46  46 100 SE6       30.38F VSB 1/4
DANVILLE*      CLOUDY    52  52 100 CALM      30.35F FOG
LEXINGTON      CLOUDY    51  50  96 E5        30.35F FOG
FRANKFORT      CLOUDY    50  47  89 E3        30.33S FOG
LOUISVILLE     DRZL/FOG  50  49  96 CALM      30.33F VSB 1
LEBANON*       CLOUDY    55  55 100 SE5       30.33S FOG
GLASGOW*       FOG      N/A N/A N/A E3        30.31F VSB 1/4
BOWLING GREEN  FOG       57  57 100 NE3       30.30F VSB 1/4
$$

KYZ091>093-OHZ055-061-077-WVZ005-015-034-035-042-230600
...SOUTHERN OHIO/WEST VIRGINIA...

CITY           SKY/WX    TMP DP  RH WIND       PRES   REMARKS
COVINGTON      DRIZZLE   45  45 100 SE8       30.35F FOG
COLUMBUS       CLOUDY    43  41  93 E8        30.39F
DAYTON         LGT RAIN  43  43 100 E8        30.37F VSB 1
WILMINGTON     CLOUDY    43  43 100 E9        30.36F FOG
HUNTINGTON     FOG       48  46  93 NE3       30.39S VSB 1/2
CHARLESTON     MOCLDY    50  50 100 CALM      30.37F
BECKLEY        CLOUDY    55  54  96 CALM      30.41F
BLUEFIELD      CLOUDY    59  55  87 NE3       30.43F
LOGAN CO APT*    N/A     57  55  94 CALM      30.37F
$$

VAZ002-007-008-TNZ017-027-036-066-071-230600
...SOUTHWEST VIRGINIA/EAST TENNESSEE...

CITY           SKY/WX    TMP DP  RH WIND       PRES   REMARKS
WISE*            N/A     61  55  82 SW7       30.43R
JONESVILLE*      N/A     57  55  94 CALM      30.40S
ABINGDON*        N/A     60  55  83 SE3       30.41R
BRISTOL          N/A     57  56  96 CALM      30.38S
MORRISTOWN*    PTCLDY    59  57  94 CALM      30.37S
SEVIERVILLE*   PTCLDY    57  57 100 CALM      30.37R
KNOXVILLE        N/A     60  59  96 CALM      30.35S
LAFOLLETTE*    CLOUDY    55  55 100 CALM      30.40S FOG
OAK RIDGE      LGT RAIN  59  59 100 CALM      30.37S VSB 3/4
CROSSVILLE       N/A     54  53  97 S3        30.38S FOG
NASHVILLE      FOG       57  56  96 SE5       30.30F VSB 1/2
$$

...KEY TO REMARKS...
VSB - VISIBILITY IN MILES
WCI - WIND CHILL INDEX
HX  - HEAT INDEX

$$



USA.gov is the U.S. government's official web portal to all federal, state and local government web resources and services.